ICO F2                  
1 26857U 01026A   19263.13243243 -.00000009  00000-0  00000-0 0  9990
2 26857  44.8902  91.8178 0016921 161.2717 198.8455  3.92403903109109
ATLAS 2AS CENTAUR R/B   
1 26858U 01026B   19261.11981964 -.00000002  00000-0  00000+0 0  9998
2 26858  44.9167 271.9730 0091234 147.7166 299.0861  4.15710303277108